Regional Weather Roundup
Issued by NWS Albany, NY

Home | Current Version | Previous Version | Graphics & Text | Print | Product List | Glossary Off
Versions: 1 2 3 4 5 6 7 8 9 10 11 12 13 14 15 16 17 18 19 20 21 22 23 24 25 26 27 28 29 30 31 32 33 34 35 36 37 38 39 40 41 42 43 44 45 46 47 48 49

000
ASUS41 KALY 242310
RWRALY

NEW YORK STATE HOURLY WEATHER ROUNDUP
NATIONAL WEATHER SERVICE ALBANY NY
600 PM EST SAT JAN 24 2015

NOTE: "FAIR" INDICATES FEW OR NO CLOUDS BELOW 12,000 FEET WITH NO
SIGNIFICANT WEATHER AND/OR NO OBSTRUCTIONS TO VISIBILITY.

NYZ032-033-038>043-046>054-057>066-NYZ062>081-250000-
EAST


CITY           SKY/WX    TMP DP  RH WIND       PRES   REMARKS
ALBANY         MOCLDY    33  22  63 NW10      29.33R WCI  25
GLENS FALLS    CLEAR     23  21  92 CALM      29.31R FOG
POUGHKEEPSIE   CLOUDY    34  30  85 NW5       29.33R WCI  30
NEWBURGH       MOCLDY    32  32 100 CALM      29.33R FOG
MONTGOMERY     CLOUDY    38  28  67 NW10      29.32R WCI  31
WHITE PLAINS   CLOUDY    34  31  88 NW9       29.31R WCI  27
ISLIP          LGT SNOW  34  32  92 NW12      29.30R FOG     WCI  25
NEW YORK CITY  CLOUDY    38  32  79 NW10      29.34R WCI  31
CENTRAL PARK   CLOUDY    38  32  79 W8        29.36R WCI  32
$$

NYZ005>009-017-018-044>046-055-056-250000-
CENTRAL


CITY           SKY/WX    TMP DP  RH WIND       PRES   REMARKS
FULTON         FRZ RAIN  28  24  85 SW7       29.46R FOG     WCI  21
SYRACUSE       FLURRIES  26  23  88 SW10      29.46S WCI  16
ROME           CLOUDY    28  23  81 W13       29.45R WCI  17
ELMIRA         CLOUDY    31  23  72 W7        29.46R WCI  24
BINGHAMTON     CLOUDY    26  20  77 NW9       29.39R WCI  17
MONTICELLO     PTCLDY    30  27  86 W12       29.33R WCI  21
$$

NYZ026>034-041>043-250000-
NORTH


CITY           SKY/WX    TMP DP  RH WIND       PRES   REMARKS
WATERTOWN      FRZ RAIN  31  28  89 SW6       29.43S FOG     WCI  25
FORT DRUM      NOT AVBL
MASSENA        LGT SNOW  29  28  96 SW10      29.40R FOG     WCI  20
SARANAC LAKE   CLOUDY    25  20  81 W7        29.29R WCI  17
PLATTSBURGH    CLOUDY    30  22  72 N8        29.33S WCI  22
$$

NYZ001>004-010>016-019>021-250000-
WEST


CITY           SKY/WX    TMP DP  RH WIND       PRES   REMARKS
NIAGARA FALLS  FRZ DRZL  30  27  88 W15       29.50R FOG     WCI  19
BUFFALO        FRZ DRZL  30  27  88 SW14G25   29.50R FOG     WCI  19
DUNKIRK        FRZ RAIN  30  28  92 W16G28    29.54R FOG     WCI  19
JAMESTOWN      CLOUDY    25  23  93 SW12      29.49R WCI  14
WELLSVILLE     CLOUDY    23  21  92 W14G22    29.45R FOG     WCI  11
ROCHESTER      FRZ DRZL  30  27  88 W10       29.47R FOG     WCI  21
PENN YAN       CLOUDY    29  23  78 W13       29.45R WCI  19
$$

             KEY
       WCI = WIND CHILL INDEX
       VSB = VISIBILITY
       HX  = HEAT INDEX
$$


USA.gov is the U.S. government's official web portal to all federal, state and local government web resources and services.